Lapse_Rate
3.5 4.3 4.7 4.2 3.2 3.1 4.9 5.6 5.8 5.9 5.7 5.4 5.9 5.9 5.3 5.2 4.5 4.3 4.2 4.5 4.3 4.3 4.2 4.1 4.1 4.0 4.0 3.9 4.1 3.7 4.1 4.1 4.7 5.3 5.8 6.3 5.5 4.2 1.1 -0.3 0.1 0.8 0.8
3.2 3.4 3.3 3.5 3.4 2.9 2.6 2.0 4.9 3.1 2.5 2.3 1.9 1.1 0.5 0.7 1.1 1.4 1.9 1.8 2.5 2.1 1.9 1.9 1.0 1.4 0.8 0.7 1.1 1.6 3.2 4.0 4.8 5.7 6.2 5.8 5.9 6.0 6.0 4.8 1.7 1.0 1.2
2.7 2.5 1.8 1.7 1.7 1.2 1.0 0.9 1.2 0.5 0.2 -0.2 -0.5 -0.7 -1.0 -1.1 -0.9 -0.4 0.2 0.4 0.3 0.1 0.2 0.3 -0.1 0.0 -0.3 0.2 0.8 0.9 1.3 1.6 2.2 2.8 3.1 3.5 3.9 2.4 2.1 1.1 0.8 0.6 0.8
2.3 1.9 1.6 0.5 -0.0 -0.5 -0.5 -0.8 -0.7 -0.3 -1.0 -1.3 -1.7 -1.8 -1.8 -1.9 -1.9 -1.0 -0.5 -0.3 -0.1 -0.5 -0.3 -0.4 -0.6 -0.5 -0.4 -0.1 0.5 0.8 0.9 1.1 1.6 1.9 2.3 3.3 3.1 1.6 0.1 0.9 2.0 -0.5 0.5
2.0 1.8 1.2 1.0 0.3 -0.8 -1.6 -1.9 -2.0 -1.6 -1.6 -1.6 -1.6 -1.7 -1.4 -1.2 -1.4 -0.6 -0.5 -0.7 -0.3 -0.2 -0.1 0.0 -1.2 -2.6 -2.6 -1.5 -0.6 -0.5 0.0 -0.1 1.0 1.3 1.7 2.1 2.1 1.9 2.6 2.6 2.4 2.2 1.0
1.9 1.6 2.0 1.4 -0.1 -0.4 -0.8 -1.5 -1.4 -1.4 -1.4 -1.5 -1.1 -1.3 -1.7 -1.4 -1.9 -2.0 -0.7 -0.5 -0.5 -0.4 -0.7 -0.8 -1.0 -1.3 -0.6 -0.9 -0.7 0.1 0.4 0.6 0.8 1.7 1.9 2.5 2.6 2.8 3.3 3.4 3.6 3.5 4.2
1.8 1.1 1.5 0.7 -0.1 -0.2 -0.3 -0.8 -1.1 -0.5 -0.5 -1.2 0.8 -0.8 -1.5 -1.7 -1.8 -1.8 -1.8 -1.1 -1.0 -0.8 -0.8 -1.5 -1.0 -0.5 -0.8 -0.1 0.4 0.5 0.0 1.2 1.9 2.3 2.2 2.6 2.4 2.9 2.9 2.5 2.5 3.5 3.6
1.3 0.8 1.1 2.0 0.7 0.3 -0.3 -1.8 -0.5 -0.3 0.1 -0.1 -0.9 -0.8 -1.2 -1.3 -1.3 -1.4 -1.3 -0.4 -0.6 -0.9 -1.1 -1.1 -0.8 -0.4 -0.7 -0.7 -0.3 0.2 0.6 1.5 1.7 2.2 2.6 3.3 3.1 2.7 3.0 2.8 2.9 3.4 3.3
0.3 1.3 1.0 1.1 0.9 0.9 -0.3 -0.6 -0.4 -0.4 -0.9 -1.6 -1.6 -1.3 -0.9 -0.4 -0.8 -1.5 -0.7 -0.4 -0.4 -0.9 -0.7 -0.8 -0.6 -0.5 -0.6 -0.2 -0.2 -0.5 0.0 0.3 0.4 1.3 1.8 2.2 2.5 2.6 2.6 2.6 2.8 3.5 4.9
-0.2 0.4 0.7 0.7 0.5 -0.8 -0.2 -0.5 -0.7 -0.6 -1.0 -1.1 -1.9 -1.9 -1.7 -0.8 -0.9 -1.1 -0.9 -0.9 -0.8 -0.5 -0.6 -0.8 -1.0 -0.1 0.1 0.1 -0.0 -0.8 -0.3 0.0 -0.1 -0.1 0.5 1.4 1.7 2.0 2.3 2.8 3.4 4.2 4.9
-0.5 0.1 -0.1 -0.0 -0.4 -0.7 -1.0 -0.6 -0.5 -0.8 -1.1 -1.4 -1.7 -1.5 -1.7 -1.5 -1.0 -1.3 -1.3 -1.3 -1.1 -0.7 -1.2 -1.3 -0.7 0.1 0.2 0.4 0.2 -0.4 -0.2 0.7 0.5 0.6 0.9 1.3 1.2 1.3 1.7 1.6 2.5 3.4 3.5
-0.7 -1.1 -1.7 -1.5 -1.1 -0.9 -0.9 -1.0 -0.7 -0.4 -0.9 -1.3 -1.1 -1.1 -1.6 -2.1 -2.1 -2.3 -2.5 -2.4 -2.0 -1.6 -1.5 -0.8 0.1 0.1 -0.5 -0.3 -0.2 0.2 -0.1 -0.3 -0.0 0.3 0.9 1.8 1.9 1.8 2.0 2.4 2.7 2.8 3.1
-1.3 -2.5 -2.4 -2.3 -1.9 -1.4 -0.7 -1.0 -0.7 -0.9 -0.8 -1.1 -1.1 -1.3 -1.8 -2.1 -2.0 -2.2 -2.0 -2.2 -2.5 -1.9 -1.8 -1.4 -0.5 -0.4 -0.5 -1.2 -1.2 -1.0 -0.5 0.5 0.5 0.5 1.2 2.5 2.6 2.6 2.7 2.4 3.3 3.4 3.9
-1.6 -1.7 -1.9 -2.1 -2.1 -2.0 -1.3 -0.8 -1.0 -1.4 -1.5 -1.6 -1.7 -1.9 -1.7 -1.4 -1.4 -1.0 -1.2 -1.6 -2.2 -1.2 -1.5 -1.0 -1.6 -1.5 -1.7 -1.6 -1.5 -1.0 -0.6 -0.2 0.3 1.1 1.8 2.9 3.0 2.5 2.6 2.6 2.4 3.4 4.1
-2.2 -1.9 -2.0 -2.0 -2.4 -2.5 -2.2 -1.9 -1.7 -2.1 -2.1 -1.9 -2.2 -2.2 -1.9 -1.6 -1.9 -1.5 -1.2 -0.9 -1.1 -2.4 -4.0 -2.3 -2.4 -2.1 -2.0 -2.1 -1.6 -1.5 -0.8 -0.5 -0.2 0.4 1.5 2.2 2.9 2.8 2.8 2.8 3.3 4.2 4.0
-1.7 -1.8 -1.7 -2.0 -2.2 -2.5 -2.1 -2.8 -2.5 -2.5 -2.6 -2.6 -1.9 -1.6 -1.8 -1.6 -1.6 -1.4 -1.7 -2.3 -3.1 -3.3 -3.5 -3.3 -3.3 -3.1 -2.9 -2.4 -1.9 -1.1 -0.6 -0.9 -0.9 0.7 1.8 2.2 2.6 2.8 2.7 3.3 3.9 4.1 4.3
-1.9 -2.0 -2.0 -2.1 -2.0 -2.9 -3.0 -1.7 -2.1 -3.2 -2.8 -2.5 -2.6 -1.7 -1.5 -1.8 -2.0 -2.0 -2.9 -3.6 -3.7 -3.2 -3.4 -3.5 -3.3 -3.3 -3.0 -2.0 -1.9 -1.5 -1.4 -1.2 -0.8 0.4 1.3 1.7 2.3 2.9 3.1 3.3 3.7 4.3 4.1
-2.2 -2.0 -1.7 -1.7 -1.8 -3.0 -3.2 -2.8 -2.2 -1.2 -1.5 -2.5 -4.6 -3.6 -3.3 -2.5 -2.7 -3.5 -3.7 -3.5 -2.7 -4.2 -5.0 -4.2 -3.8 -3.4 -3.2 -2.9 -2.1 -1.9 -1.1 -0.7 -0.5 0.0 0.6 1.1 1.6 2.5 2.9 2.9 2.9 3.0 3.8
-2.3 -1.9 -2.0 -1.9 -1.9 -2.1 -3.8 -4.2 -3.6 -3.4 -2.9 -2.8 -4.0 -4.1 -6.5 -3.4 -4.2 -4.7 -4.8 -3.1 -3.6 -4.4 -5.3 -4.4 -5.1 -4.4 -3.5 -3.0 -2.5 -2.0 -1.4 -1.1 -1.2 -0.3 0.3 0.7 1.2 2.1 2.3 2.7 3.2 1.8 3.0
-3.4 -2.7 -2.1 -1.9 -2.2 -2.2 -2.8 -3.8 -3.9 -3.6 -3.4 -3.4 -3.2 -2.2 -4.2 -6.1 -2.6 -3.4 -5.0 -4.8 -4.4 -4.8 -5.3 -4.7 -4.9 -4.4 -3.9 -3.4 -2.3 -1.7 -0.1 -0.3 -0.5 -0.2 -0.1 0.4 1.2 1.6 1.8 2.2 2.6 3.4 2.7
-3.3 -3.0 -2.6 -2.1 -2.5 -2.5 -2.1 -3.2 -3.0 -3.2 -3.1 -3.2 -2.8 -3.9 -4.6 -4.0 -2.4 -2.7 -4.0 -4.6 -4.3 -4.5 -4.8 -4.7 -4.5 -4.1 -3.9 -3.3 -3.0 -1.3 -0.5 0.0 -1.0 -0.8 -0.4 0.1 0.3 1.4 1.5 2.0 2.3 2.5 2.9
-2.9 -2.9 -2.9 -2.6 -2.9 -3.2 -2.9 -2.7 -3.8 -3.7 -3.2 -3.0 -3.1 -4.9 -3.1 -4.9 -4.5 -3.8 -4.1 -4.7 -5.5 -6.1 -6.4 -5.9 -4.5 -4.2 -4.6 -4.4 -3.9 -1.8 -0.9 -0.3 -0.2 -0.3 -0.2 -0.7 0.5 0.9 1.4 1.7 2.2 2.1 2.2
-2.7 -2.6 -2.9 -2.8 -2.8 -4.1 -5.0 -4.5 -4.6 -4.4 -3.6 -3.5 -3.5 -4.2 -5.2 -4.4 -4.5 -4.5 -4.3 -4.6 -6.0 -6.4 -6.8 -7.2 -5.5 -5.1 -4.9 -5.4 -4.9 -4.3 -2.5 -1.5 -2.2 -3.1 -0.7 0.2 0.4 0.8 0.8 1.2 1.0 1.5 1.5
-2.5 -2.0 -2.0 -2.1 -2.4 -3.3 -4.4 -4.4 -4.8 -5.2 -3.9 -3.6 -4.2 -4.4 -4.2 -4.5 -4.7 -4.7 -4.7 -5.1 -6.2 -6.5 -7.0 -7.4 -7.0 -6.1 -5.7 -5.3 -4.1 -3.9 -4.1 -3.9 -4.0 -3.8 -3.5 -1.2 -0.3 -1.3 -0.2 -0.5 -0.1 -0.7 0.2
-2.8 -2.0 -1.5 -1.7 -2.3 -2.9 -3.5 -3.6 -3.7 -4.0 -4.1 -3.9 -3.8 -4.4 -4.4 -4.9 -5.2 -5.1 -5.0 -5.9 -6.7 -6.4 -6.3 -6.9 -6.6 -6.2 -6.0 -5.5 -4.9 -4.1 -3.3 -2.5 -3.2 -3.3 -3.6 -2.8 -1.5 -1.8 -1.9 -1.3 -1.2 -1.1 -1.2
-3.5 -2.5 -1.8 -1.9 -3.2 -3.4 -3.1 -2.9 -3.0 -3.0 -3.3 -3.1 -3.2 -3.3 -3.5 -4.2 -4.4 -4.4 -4.8 -5.6 -6.2 -6.4 -6.4 -6.3 -6.2 -5.7 -5.3 -5.0 -4.3 -3.8 -2.8 -2.1 -2.1 -2.1 -3.1 -2.5 -1.8 -1.5 -1.9 -1.6 -2.3 -1.1 -1.2
Wind_Speed
12 10 10 9 10 11 9 9 8 7 8 8 8 7 5 6 5 6 8 8 8 8 6 7 9 6 6 6 7 7 8 8 10 11 10 11 10 10 8 16 19 18 19
11 10 10 10 9 9 9 9 6 7 8 8 8 9 9 9 8 8 8 8 7 6 6 7 6 4 6 7 5 7 6 6 7 12 9 9 10 10 11 9 8 14 16
10 10 11 11 11 11 11 11 10 10 11 11 11 11 10 9 9 9 8 8 9 9 9 9 9 8 7 6 5 5 5 5 6 5 5 4 4 3 5 4 4 5 11
9 9 10 11 11 11 12 13 11 10 12 12 12 12 11 10 9 8 8 8 9 9 9 9 9 9 8 8 7 7 7 6 6 6 6 7 7 5 3 4 7 2 6
9 10 10 9 10 11 13 13 13 12 11 11 13 12 11 11 8 7 8 9 8 9 9 9 10 8 10 8 6 7 8 7 7 7 7 6 6 8 8 6 8 8 7
10 10 9 10 10 10 11 12 12 12 12 12 11 11 12 9 16 15 9 10 10 9 8 8 7 9 9 9 10 8 6 6 7 5 3 8 9 11 9 9 9 8 6
10 10 10 10 9 9 10 13 13 11 8 13 9 13 12 13 17 16 12 9 9 9 8 9 8 6 9 8 9 10 8 8 8 7 8 8 10 10 10 12 12 10 10
11 10 10 10 10 8 11 15 11 9 10 7 10 12 12 12 16 14 12 9 9 10 10 10 8 9 10 9 9 9 8 7 9 7 9 10 10 12 11 10 12 12 9
8 7 7 8 9 11 11 12 8 8 8 9 9 10 11 12 18 16 9 7 8 10 8 10 9 10 14 13 8 9 7 7 11 13 13 14 15 15 15 7 7 8 8
5 5 6 8 7 9 8 8 7 8 8 6 9 10 11 11 21 20 11 5 8 5 6 8 15 10 12 14 9 8 9 10 10 10 8 10 13 14 15 11 7 7 8
4 6 5 6 7 9 9 8 7 7 7 8 9 8 9 11 12 19 18 7 5 5 6 6 6 13 13 14 13 8 8 8 10 8 7 7 8 8 8 12 12 7 6
5 5 6 6 6 6 8 7 7 6 7 7 6 6 7 8 17 17 19 17 12 7 6 6 6 12 13 16 12 13 13 11 7 8 8 8 8 8 9 11 12 11 10
3 3 4 5 5 5 6 6 6 6 6 6 5 6 7 7 8 19 18 18 15 6 5 6 8 11 11 8 15 17 13 7 7 8 8 8 8 8 12 9 9 13 7
4 3 3 4 5 6 5 5 5 5 4 5 5 6 6 7 8 7 7 8 10 7 6 6 5 6 11 9 7 9 7 7 7 7 8 8 7 8 8 9 7 9 6
5 4 3 3 3 5 5 5 5 6 5 5 5 4 4 5 7 8 8 5 4 3 2 3 5 5 7 8 8 8 7 7 8 8 7 8 8 7 8 8 8 7 8
5 4 3 3 2 2 4 5 8 7 9 10 10 7 3 4 6 4 6 8 7 6 3 5 6 6 7 6 7 7 7 8 7 8 8 7 8 8 8 7 7 7 7
7 6 4 4 3 3 3 4 4 3 5 7 9 4 3 3 5 4 3 7 14 5 5 5 4 4 5 5 6 5 6 6 6 6 7 7 8 7 8 8 8 7 7
8 9 6 5 5 4 3 3 3 3 3 2 1 1 2 2 5 7 2 2 3 5 4 3 3 3 3 3 4 5 5 5 6 6 7 7 7 7 7 8 7 7 7
9 7 7 6 6 5 4 4 3 3 2 1 1 3 2 2 3 4 8 3 3 3 1 1 1 2 3 3 3 4 5 5 5 6 6 6 6 6 6 6 5 7 6
9 12 10 7 7 7 6 6 5 5 4 4 3 3 2 2 3 1 2 2 3 2 2 1 1 2 1 2 3 4 3 5 5 5 5 5 5 5 5 6 5 5 6
8 9 12 8 7 8 7 7 6 6 6 5 5 4 4 3 3 3 3 3 3 2 2 2 1 2 2 2 2 2 3 3 3 3 4 4 4 4 4 4 5 5 6
9 9 9 9 9 8 8 8 7 6 6 6 5 5 9 4 4 4 4 3 4 5 4 4 3 3 2 3 3 3 3 3 3 3 3 2 3 3 3 3 4 4 4
10 10 10 9 9 10 8 8 7 7 7 7 6 6 6 6 6 5 5 4 6 6 6 6 5 4 3 3 3 3 2 2 3 4 3 2 1 1 1 2 2 3 3
10 11 10 9 8 8 8 8 8 8 7 7 7 6 6 6 6 7 6 7 7 7 7 7 7 7 5 5 4 4 4 4 4 4 5 3 2 2 1 1 1 2 2
11 10 10 10 9 9 8 8 8 8 8 8 7 7 6 6 6 7 7 9 9 9 9 10 9 9 9 10 8 7 6 6 6 6 4 4 3 2 2 2 3 2 2
11 11 10 8 8 8 8 8 8 8 8 7 7 7 7 7 7 7 7 10 10 11 12 11 12 14 12 12 11 10 9 8 8 7 5 4 4 3 3 3 4 3 4
Wind_Direction
339 340 339 333 321 312 267 267 249 212 202 212 219 224 229 242 253 234 232 235 227 228 232 225 241 273 260 250 246 245 249 248 260 270 266 280 282 261 246 234 242 244 250
348 353 357 0 4 8 21 15 14 86 59 70 75 72 59 44 32 38 48 41 60 60 42 61 40 28 40 19 5 10 346 316 291 289 302 300 296 296 288 275 253 247 250
360 10 14 16 25 28 27 30 44 64 70 68 66 65 56 50 43 42 46 52 58 58 53 50 42 35 35 9 5 1 350 338 330 322 318 329 310 343 328 310 300 285 267
9 23 26 26 30 34 37 35 40 57 74 72 70 70 57 54 49 52 59 60 60 58 57 58 50 41 29 12 5 0 349 341 338 336 330 327 331 338 299 311 315 302 292
8 26 27 30 43 41 44 46 41 45 54 64 75 69 59 52 42 62 66 68 69 72 64 67 51 37 39 20 13 5 352 359 347 341 337 332 325 329 324 319 305 309 295
32 27 25 38 49 49 49 47 51 49 45 49 57 59 63 56 49 46 68 76 73 71 64 64 52 25 18 15 15 8 14 354 354 333 317 329 321 323 320 317 311 314 326
45 37 26 22 36 53 61 57 44 40 57 52 42 64 59 61 52 49 51 67 66 65 60 50 39 19 8 13 21 29 26 16 356 329 323 323 315 319 318 314 311 302 287
39 40 40 41 34 44 59 58 47 45 62 73 58 59 59 55 58 63 60 73 75 68 57 47 41 28 18 13 17 17 15 360 353 348 339 326 323 323 320 315 304 290 282
41 48 43 66 56 50 59 68 64 70 66 64 61 57 58 55 51 55 65 69 69 61 53 42 36 31 18 15 16 10 356 358 348 343 339 336 334 337 342 329 329 321 317
42 47 40 68 72 73 78 80 75 75 79 80 74 60 52 47 42 43 47 57 63 52 48 36 30 29 26 30 28 11 2 353 345 342 343 348 352 351 349 355 334 324 324
24 43 45 60 67 68 69 63 69 71 70 65 63 58 54 45 43 43 44 51 52 52 41 29 18 22 34 36 33 25 11 344 352 354 348 351 354 352 352 351 348 342 338
47 51 48 54 65 64 73 69 64 71 73 67 67 62 45 38 36 35 41 43 42 51 34 22 7 21 38 35 29 19 18 11 5 6 2 359 355 351 345 342 340 350 5
110 79 85 84 88 90 90 84 78 67 65 60 55 54 38 24 25 26 30 33 37 46 32 19 17 24 33 34 29 26 19 12 13 12 4 356 352 339 335 343 343 351 12
157 135 83 72 78 79 83 77 77 72 76 69 60 50 38 30 22 17 18 18 23 26 15 19 11 28 43 39 29 26 23 15 14 6 359 349 347 358 2 359 358 359 22
162 151 130 101 91 96 79 86 83 66 63 74 66 59 38 31 14 13 16 7 353 7 302 33 35 25 27 24 22 17 16 13 16 5 3 357 360 360 10 7 10 20 31
173 173 169 157 129 111 119 103 73 89 83 81 73 57 39 17 1 15 27 23 18 23 46 40 34 26 25 14 13 4 10 11 9 6 8 7 2 5 6 14 18 27 26
186 177 174 184 181 172 180 181 159 102 88 77 75 39 53 23 26 31 37 40 37 38 61 42 33 26 16 1 0 4 8 0 344 15 16 13 9 9 11 17 16 17 25
190 185 187 190 188 180 184 179 165 177 186 169 160 351 320 38 45 43 79 100 42 46 51 33 20 356 2 6 358 5 358 7 13 15 23 18 18 20 22 21 17 20 18
188 189 192 192 193 188 174 175 175 170 184 209 252 236 268 173 82 54 55 98 104 79 46 343 337 347 351 352 351 0 0 9 9 20 24 22 23 27 27 17 25 28 24
192 193 188 190 194 198 193 190 188 193 188 200 216 223 184 227 220 179 97 143 136 160 192 231 288 292 332 351 355 356 3 23 25 25 25 27 24 32 42 24 14 22 33
188 189 195 197 198 199 202 205 204 199 199 198 208 197 205 248 230 216 190 176 169 195 221 235 259 285 317 326 1 360 355 21 22 32 33 30 27 35 29 38 38 29 14
186 184 189 197 196 200 203 201 201 204 208 209 204 203 212 202 223 231 226 211 196 203 213 246 263 270 303 315 337 341 342 347 358 2 37 41 39 45 43 36 28 42 44
191 190 191 197 197 196 199 204 203 204 207 208 202 198 199 210 211 217 225 221 216 220 221 228 237 251 253 265 266 277 305 337 334 322 327 350 15 96 80 82 60 39 42
195 197 197 199 198 197 203 203 205 206 206 207 204 210 210 211 215 218 218 218 224 234 235 236 241 246 253 255 263 267 272 289 286 280 285 285 253 215 198 158 145 140 136
197 199 202 201 198 200 198 205 207 208 209 210 210 211 212 213 216 220 219 216 218 224 230 233 240 248 251 259 264 271 281 292 279 267 254 262 271 239 205 206 191 181 172
198 201 204 200 197 198 201 201 203 202 208 211 213 213 212 210 215 216 213 213 217 222 225 225 231 237 246 255 258 264 277 286 277 275 255 247 236 233 226 219 206 213 196